KLM35 WADL-WBSB

Flight info

Callsign KLM35
Flight time N/A
Altitude 38000
Route AGUNG DCT DOBMA M522 ELANG/N0481F370 R223 BRU
Aircraft B77W/H-SDE1E2E3FGHIJ2J3J4J5M1RWXY/LB1D1

Departure

Time 2026-04-17 09:23
Airport Lombok International Airport (WADL)

Arrival

Time N/A
Airport Brunei International Airport (WBSB)
Time Latitude Longitude Altitude Speed Heading
2026-04-17 09:05 -8.76260 116.27635 310 ft 0 kts 218°
2026-04-17 09:07 -8.76258 116.27638 311 ft 1 kts 218°
2026-04-17 09:07 -8.76258 116.27637 310 ft 0 kts 218°
2026-04-17 09:07 -8.76248 116.27645 311 ft 2 kts 218°
2026-04-17 09:08 -8.76235 116.27656 310 ft 2 kts 218°
2026-04-17 09:08 -8.76222 116.27666 310 ft 2 kts 218°
2026-04-17 09:08 -8.76209 116.27676 309 ft 2 kts 218°
2026-04-17 09:08 -8.76202 116.27681 310 ft 0 kts 218°
2026-04-17 09:09 -8.76202 116.27682 310 ft 1 kts 218°
2026-04-17 09:09 -8.76201 116.27683 310 ft 0 kts 218°
2026-04-17 09:09 -8.76193 116.27688 312 ft 2 kts 218°
2026-04-17 09:10 -8.76187 116.27694 309 ft 0 kts 218°
2026-04-17 09:17 -8.76186 116.27694 309 ft 2 kts 218°
2026-04-17 09:17 -8.76178 116.27700 311 ft 1 kts 218°
2026-04-17 09:17 -8.76176 116.27702 310 ft 0 kts 218°
2026-04-17 09:18 -8.76173 116.27704 309 ft 1 kts 218°
2026-04-17 09:18 -8.76205 116.27661 311 ft 11 kts 264°
2026-04-17 09:18 -8.76191 116.27629 313 ft 1 kts 311°
2026-04-17 09:18 -8.76128 116.27553 311 ft 33 kts 309°
2026-04-17 09:19 -8.75934 116.27342 309 ft 40 kts 340°
2026-04-17 09:19 -8.75696 116.27217 309 ft 39 kts 310°
2026-04-17 09:19 -8.75528 116.27010 307 ft 37 kts 309°
2026-04-17 09:19 -8.75419 116.26876 307 ft 37 kts 309°
2026-04-17 09:20 -8.75204 116.26610 304 ft 36 kts 309°
2026-04-17 09:20 -8.75043 116.26511 301 ft 27 kts 11°
2026-04-17 09:20 -8.74975 116.26569 301 ft 13 kts 79°
2026-04-17 09:20 -8.75021 116.26661 302 ft 0 kts 129°
2026-04-17 09:22 -8.75022 116.26661 302 ft 1 kts 129°
2026-04-17 09:22 -8.75079 116.26732 303 ft 52 kts 129°
2026-04-17 09:22 -8.75525 116.27286 310 ft 149 kts 129°
2026-04-17 09:23 -8.76361 116.28255 636 ft 196 kts 133°
2026-04-17 09:23 -8.77187 116.29260 2003 ft 177 kts 130°
2026-04-17 09:23 -8.77975 116.30279 3269 ft 190 kts 129°
2026-04-17 09:23 -8.78812 116.31361 4244 ft 200 kts 129°
2026-04-17 09:24 -8.79933 116.32198 4805 ft 206 kts 168°
2026-04-17 09:24 -8.81319 116.32035 5193 ft 207 kts 213°
2026-04-17 09:24 -8.82247 116.30954 5672 ft 208 kts 249°
2026-04-17 09:24 -8.82503 116.29514 6138 ft 212 kts 275°
2026-04-17 09:25 -8.82047 116.28123 6552 ft 215 kts 308°
2026-04-17 09:25 -8.80870 116.27230 6965 ft 215 kts 347°
2026-04-17 09:25 -8.79414 116.27297 7365 ft 213 kts 28°
2026-04-17 09:25 -8.78279 116.28225 7817 ft 211 kts 46°
2026-04-17 09:26 -8.77233 116.29314 8317 ft 219 kts 45°
2026-04-17 09:26 -8.75961 116.30132 8681 ft 220 kts 11°
2026-04-17 09:26 -8.74453 116.30016 9136 ft 222 kts 334°
2026-04-17 09:26 -8.73286 116.29010 9611 ft 225 kts 298°
2026-04-17 09:27 -8.72667 116.27562 10059 ft 225 kts 302°
2026-04-17 09:27 -8.71509 116.26517 10417 ft 227 kts 339°
2026-04-17 09:27 -8.70014 116.25986 10905 ft 230 kts 342°
2026-04-17 09:27 -8.68477 116.25430 11367 ft 237 kts 342°
2026-04-17 09:28 -8.66935 116.24846 11783 ft 235 kts 340°
2026-04-17 09:28 -8.65437 116.24262 12191 ft 233 kts 340°
2026-04-17 09:28 -8.63915 116.23654 12634 ft 237 kts 340°
2026-04-17 09:28 -8.62362 116.23025 13111 ft 242 kts 341°
2026-04-17 09:29 -8.60787 116.22377 13566 ft 245 kts 340°
2026-04-17 09:29 -8.59202 116.21719 13999 ft 247 kts 340°
2026-04-17 09:29 -8.57611 116.21053 14398 ft 248 kts 340°
2026-04-17 09:29 -8.56015 116.20383 14804 ft 248 kts 340°
2026-04-17 09:30 -8.54420 116.19710 15207 ft 249 kts 340°
2026-04-17 09:30 -8.52822 116.19035 15627 ft 249 kts 340°
2026-04-17 09:30 -8.51222 116.18358 16048 ft 250 kts 340°
2026-04-17 09:30 -8.49614 116.17677 16488 ft 252 kts 340°
2026-04-17 09:31 -8.47992 116.16991 16946 ft 255 kts 340°
2026-04-17 09:31 -8.46346 116.16294 17406 ft 258 kts 340°